Location: Bagnara
(41.0500°N, 14.7833°E)
Time: 15:36:23
(UTC+00:00)

Cosmos 1656 - Pass Details

Date: 20 June 2021
Orbit: 797 x 850 km, 71.1° (Epoch: 30 July)

Event Time Altitude Azimuth Distance (km) Brightness Sun altitude
Rises 01:58:16 0° 340° (NNW) 3,423 7.3 -13.7°
Reaches altitude 10° 02:00:47 10° 344° (NNW) 2,485 6.6 -13.4°
Maximum altitude 02:06:24 56° 63° (ENE) 1,008 4.5 -12.7°
Drops below altitude 10° 02:11:57 10° 141° (SE) 2,460 6.0 -12.0°
Sets 02:14:26 0° 146° (SE) 3,386 6.7 -11.6°
